Location: Unspecified
(33.6682°S, 0.0000°E)
Time: 00:27:39
(UTC+00:00)

Vanguard 2 Rocket - Pass Details

Date: 18 June 2019
Orbit: 554 x 3326 km, 32.9° (Epoch: 22 July)

Event Time Altitude Azimuth Distance (km) Brightness Sun altitude
Rises 06:17:30 0° 343° (NNW) 7,154 11.5 -9.5°
Reaches altitude 10° 06:25:22 10° 360° (N) 5,790 11.3 -8.0°
Maximum altitude 06:34:25 17° 32° (NNE) 4,602 11.4 -6.3°
Drops below altitude 10° 06:41:37 10° 66° (ENE) 4,493 12.4 -4.9°
Sets 06:46:20 0° 85° (E) 4,984 12.3 -4.0°
